User: anonymous   Login
Location: Cronhütte
(48.9135°N, 9.6869°E)
Time: 19:01:15
(UTC+00:00)
Language:

Cosmos 1703 - Orbit

View from above orbital plane
View from above orbital plane
View from above satellite
View from above satellite

Ground track
Ground track

The orbit data is extracted from the following two-line orbital elements,

1 16262U 85108A   24201.77246261  .00012914  00000-0  51429-3 0  9994
2 16262  82.4684 214.7435 0007105 353.4233   6.6910 15.25098591110169
Epoch (UTC): 19 July 2024 18:32:20
Eccentricity: 0.0007105
inclination: 82.4684°
perigee height: 485 km
apogee height: 495 km
right ascension of ascending node: 214.7435°
argument of perigee: 353.4233°
revolutions per day: 15.25098591
mean anomaly at epoch: 6.6910°
orbit number at epoch: 11016

The dashed part of the orbit path shows where the satellite is in the earth's shadow,  

DLR